TimeEST,TemperatureF,Dew PointF,Humidity,Sea Level PressureIn,VisibilityMPH,Wind Direction,Wind SpeedMPH,Gust SpeedMPH,PrecipitationIn,Events,Conditions,WindDirDegrees,DateUTC
12:56 AM,50.0,37.0,61,30.19,10.0,NE,9.2,-,N/A,,Mostly Cloudy,40,2013-11-20 05:56:00
1:56 AM,50.0,37.0,61,30.19,10.0,NE,11.5,-,N/A,,Mostly Cloudy,40,2013-11-20 06:56:00
2:56 AM,48.9,37.9,66,30.21,10.0,NNE,11.5,-,N/A,,Mostly Cloudy,30,2013-11-20 07:56:00
3:56 AM,48.0,37.0,66,30.21,10.0,NNE,9.2,-,N/A,,Mostly Cloudy,30,2013-11-20 08:56:00
4:56 AM,46.9,36.0,66,30.22,10.0,NNE,12.7,-,N/A,,Mostly Cloudy,30,2013-11-20 09:56:00
5:56 AM,46.0,34.0,63,30.25,10.0,NE,12.7,-,N/A,,Mostly Cloudy,40,2013-11-20 10:56:00
6:56 AM,45.0,33.1,63,30.26,10.0,NNE,11.5,-,N/A,,Mostly Cloudy,30,2013-11-20 11:56:00
7:56 AM,46.0,34.0,63,30.27,10.0,NNE,12.7,-,N/A,,Scattered Clouds,30,2013-11-20 12:56:00
8:07 AM,46.4,33.8,62,30.28,10.0,NNE,13.8,-,N/A,,Mostly Cloudy,30,2013-11-20 13:07:00
8:41 AM,48.2,35.6,62,30.28,10.0,NNE,13.8,-,N/A,,Mostly Cloudy,30,2013-11-20 13:41:00
8:56 AM,48.9,36.0,61,30.29,10.0,NNE,13.8,-,N/A,,Mostly Cloudy,30,2013-11-20 13:56:00
9:56 AM,51.1,37.0,59,30.30,10.0,NE,16.1,-,N/A,,Mostly Cloudy,50,2013-11-20 14:56:00
10:56 AM,55.0,39.9,57,30.31,10.0,NE,11.5,-,N/A,,Mostly Cloudy,40,2013-11-20 15:56:00
11:56 AM,57.0,42.1,57,30.29,10.0,NE,13.8,-,N/A,,Mostly Cloudy,40,2013-11-20 16:56:00
12:56 PM,57.9,43.0,58,30.28,10.0,NNE,9.2,-,N/A,,Overcast,30,2013-11-20 17:56:00
1:56 PM,60.1,44.1,55,30.26,10.0,NE,12.7,-,N/A,,Overcast,50,2013-11-20 18:56:00
2:56 PM,61.0,45.0,56,30.25,10.0,NNE,16.1,-,N/A,,Overcast,20,2013-11-20 19:56:00
3:07 PM,60.8,44.6,55,30.25,10.0,NNE,17.3,-,N/A,,Mostly Cloudy,30,2013-11-20 20:07:00
3:56 PM,59.0,45.0,60,30.26,10.0,NE,11.5,-,N/A,,Mostly Cloudy,40,2013-11-20 20:56:00
4:15 PM,59.0,44.6,59,30.26,10.0,NE,13.8,-,N/A,,Mostly Cloudy,40,2013-11-20 21:15:00
4:56 PM,57.9,45.0,62,30.28,10.0,NNE,9.2,-,N/A,,Mostly Cloudy,30,2013-11-20 21:56:00
5:47 PM,55.4,42.8,63,30.29,10.0,NNE,9.2,-,N/A,,Mostly Cloudy,30,2013-11-20 22:47:00
5:56 PM,55.9,42.1,60,30.29,10.0,NNE,9.2,-,N/A,,Mostly Cloudy,30,2013-11-20 22:56:00
6:56 PM,55.0,43.0,64,30.31,10.0,NE,9.2,-,N/A,,Mostly Cloudy,40,2013-11-20 23:56:00
7:35 PM,55.4,42.8,63,30.31,10.0,NNE,10.4,-,N/A,,Overcast,20,2013-11-21 00:35:00
7:56 PM,54.0,43.0,66,30.31,10.0,NNE,12.7,-,N/A,,Overcast,20,2013-11-21 00:56:00
8:02 PM,53.6,42.8,67,30.31,10.0,NNE,13.8,-,N/A,,Mostly Cloudy,20,2013-11-21 01:02:00
8:56 PM,55.0,43.0,64,30.32,10.0,NE,11.5,-,N/A,,Mostly Cloudy,50,2013-11-21 01:56:00
9:56 PM,55.0,44.1,67,30.33,10.0,NE,15.0,-,N/A,,Overcast,40,2013-11-21 02:56:00
10:56 PM,54.0,44.1,69,30.32,10.0,NE,13.8,-,N/A,,Overcast,40,2013-11-21 03:56:00
11:56 PM,53.1,43.0,69,30.32,10.0,NNE,13.8,-,N/A,,Mostly Cloudy,30,2013-11-21 04:56:00